Current Weather Conditions: station NFBF1

sailwx.info

Wind from 290 at 10 knots gusting 12

Air temperature 30.9° C

Last reported at 2014-Jul-29 20:54 UTC.
Time now 2014-Jul-29 22:58 UTC

Location: N 25°05' W 081°05'.
View on Google Maps.

See reports from other nearby stations

  
Tides and Currents Weather Stations Pressure Air Temp Water Temp Dewpoint Dewpoint Depression Visibility Wind Speed Wind Dir Waves Ship Positions
date/time (UTC)wind fromknots sea level pressurealtimeterstation pressurevisibilityair tempwater tempwave heightnotes
2014-Jul-29 20:54 290 10 gusting 12 30.9
2014-Jul-29 20:48 290 11 gusting 13 30.9
2014-Jul-29 19:54 290 12 gusting 14 30.7
2014-Jul-29 19:48 290 11 gusting 14 30.6
2014-Jul-29 18:54 280 10 gusting 12 31.0
2014-Jul-29 18:48 290 10 gusting 12 31.0
2014-Jul-29 17:54 270 10 gusting 12 30.9
2014-Jul-29 17:48 280 10 gusting 12 31.0
2014-Jul-29 17:42 270 10 gusting 11 31.0
2014-Jul-29 17:36 280 9 gusting 11 30.9
2014-Jul-29 17:30 280 9 gusting 11 30.8
2014-Jul-29 17:24 280 8 gusting 12 30.8
2014-Jul-29 17:18 290 9 gusting 12 30.8
2014-Jul-29 17:12 290 9 gusting 12 30.8
2014-Jul-29 17:06 290 10 gusting 11 30.8
2014-Jul-29 17:00 290 9 gusting 12 30.7
2014-Jul-29 16:54 290 10 gusting 13 30.8
2014-Jul-29 16:48 300 9 gusting 11 30.7
2014-Jul-29 15:54 300 9 gusting 12 30.6
2014-Jul-29 15:48 300 10 gusting 12 30.6
2014-Jul-29 15:42 290 10 gusting 12 30.6
2014-Jul-29 15:36 310 10 gusting 13 30.7
2014-Jul-29 15:30 300 10 gusting 12 30.6
2014-Jul-29 15:24 300 10 gusting 11 30.6
2014-Jul-29 15:18 300 11 gusting 13 30.6
2014-Jul-29 15:12 310 9 gusting 12 30.6
2014-Jul-29 15:06 300 9 gusting 11 30.7
2014-Jul-29 15:00 300 10 gusting 13 30.6
2014-Jul-29 14:54 300 9 gusting 11 30.6
2014-Jul-29 14:48 300 9 gusting 11 30.6
2014-Jul-29 13:54 290 9 gusting 12 30.5
2014-Jul-29 13:48 270 9 gusting 12 30.5
2014-Jul-29 12:54 290 7 gusting 9 30.4
2014-Jul-29 12:48 300 7 gusting 11 30.3
2014-Jul-29 12:42 300 7 gusting 10 30.3
2014-Jul-29 12:36 280 7 gusting 9 30.3
2014-Jul-29 12:30 280 8 gusting 10 30.3
2014-Jul-29 12:24 280 8 gusting 9 30.3
2014-Jul-29 12:18 290 7 gusting 9 30.3
2014-Jul-29 12:12 290 8 gusting 12 30.3
2014-Jul-29 12:06 290 8 gusting 10 30.2
2014-Jul-29 12:00 280 7 gusting 8 30.3
2014-Jul-29 11:54 280 8 gusting 10 30.3
2014-Jul-29 11:48 290 6 gusting 8 30.3
2014-Jul-29 10:54 260 8 gusting 10 30.3
2014-Jul-29 10:48 260 9 gusting 10 30.4
2014-Jul-29 09:54 240 9 gusting 11 30.4
2014-Jul-29 09:48 250 9 gusting 13 30.3
2014-Jul-29 09:30 250 8 gusting 10 30.1
2014-Jul-29 09:24 250 8 gusting 10 30.1
2014-Jul-29 09:18 250 8 gusting 11 30.2
2014-Jul-29 09:12 250 8 gusting 12 30.2
2014-Jul-29 09:06 260 8 gusting 9 30.1
2014-Jul-29 09:00 250 8 gusting 10 30.2
2014-Jul-29 08:54 250 6 gusting 7 30.1
2014-Jul-29 08:48 260 7 gusting 8 30.1
2014-Jul-29 07:54 250 7 gusting 8 30.1
2014-Jul-29 07:48 230 7 gusting 10 30.2
2014-Jul-29 07:42 240 7 gusting 9 30.2
2014-Jul-29 07:36 250 6 gusting 7 30.2
2014-Jul-29 07:30 240 6 gusting 8 30.1
2014-Jul-29 07:24 250 7 gusting 10 30.1
2014-Jul-29 07:18 250 6 gusting 8 30.2
2014-Jul-29 07:12 240 6 gusting 8 30.2
2014-Jul-29 07:06 260 7 gusting 9 30.3
2014-Jul-29 07:00 260 6 gusting 10 30.3
2014-Jul-29 06:54 270 6 gusting 7 30.3
2014-Jul-29 06:48 260 5 gusting 7 30.3
2014-Jul-29 05:54 290 6 gusting 8 30.4
2014-Jul-29 05:48 290 5 gusting 7 30.3
2014-Jul-29 04:54 310 5 gusting 7 30.6
2014-Jul-29 04:48 300 5 gusting 6 30.6
2014-Jul-29 04:42 310 5 gusting 7 30.5
2014-Jul-29 04:36 320 3 gusting 5 30.5
2014-Jul-29 04:30 320 5 gusting 7 30.4
2014-Jul-29 04:24 290 5 gusting 6 30.6
2014-Jul-29 04:18 310 4 gusting 6 30.5
2014-Jul-29 04:12 290 6 gusting 8 30.5
2014-Jul-29 04:06 320 5 gusting 6 30.6
2014-Jul-29 04:00 330 4 gusting 5 30.5
2014-Jul-29 03:54 320 4 gusting 7 30.7
2014-Jul-29 03:48 290 4 gusting 5 30.6
2014-Jul-29 03:30 310 4 gusting 6 30.5
2014-Jul-29 03:24 320 3 gusting 6 30.5
2014-Jul-29 03:18 310 4 gusting 5 30.5
2014-Jul-29 03:12 300 4 gusting 7 30.5
2014-Jul-29 03:06 280 3 gusting 5 30.5
2014-Jul-29 03:00 300 5 gusting 6 30.5
2014-Jul-29 02:54 300 4 gusting 6 30.5
2014-Jul-29 02:48 320 5 gusting 6 30.5
2014-Jul-29 01:54 310 7 gusting 9 30.7
2014-Jul-29 01:48 310 5 gusting 9 30.7
2014-Jul-29 00:54 330 7 gusting 8 30.7
2014-Jul-29 00:48 320 5 gusting 8 30.7
2014-Jul-28 22:54 310 6 gusting 8 31.0
2014-Jul-28 22:48 310 6 gusting 8 31.1
2014-Jul-28 22:42 300 6 gusting 8 31.0
2014-Jul-28 22:36 290 6 gusting 8 31.1
2014-Jul-28 22:30 300 6 gusting 8 31.1
2014-Jul-28 22:24 290 7 gusting 8 31.1
2014-Jul-28 22:18 290 6 gusting 8 31.1
2014-Jul-28 22:12 290 7 gusting 9 31.0
2014-Jul-28 22:06 290 7 gusting 8 31.0
2014-Jul-28 22:00 300 7 gusting 8 31.1
2014-Jul-28 21:54 290 5 gusting 7 31.1
2014-Jul-28 21:48 300 7 gusting 9 31.0
2014-Jul-28 20:54 300 6 gusting 8 30.9
2014-Jul-28 20:48 300 7 gusting 8 30.9
2014-Jul-28 19:54 290 6 gusting 7 30.7
2014-Jul-28 19:48 280 5 gusting 8 30.8
2014-Jul-28 19:42 280 5 gusting 7 30.8
2014-Jul-28 19:36 290 5 gusting 7 30.8
2014-Jul-28 19:30 290 6 gusting 7 30.7
2014-Jul-28 19:24 280 5 gusting 6 30.7
2014-Jul-28 19:18 300 5 gusting 6 30.7
2014-Jul-28 19:12 300 5 gusting 6 30.7
2014-Jul-28 19:06 290 5 gusting 7 30.7
2014-Jul-28 19:00 280 4 gusting 6 30.8
2014-Jul-28 18:54 270 5 gusting 6 30.7
2014-Jul-28 18:48 290 5 gusting 6 30.7